Find Starlink 36563

NORAD ID: 67550 Int'l Des: 2026-014 Owner: SPXS Country: US Constellation: starlink operational
LEOCIRCULARRETROGRADE

当前视图

正在加载3D地球...

关于 Starlink 36563

正在加载描述...

即将过境

Passes for default location (London). Set your location on the main map for personalized predictions.

高度历史

Loading altitude history...

两行轨道根数

1 67550U 26014U 26146.23967199 .00017752 00000-0 55096-3 0 9991
2 67550 97.2866 33.3548 0001562 88.2976 271.8446 15.33440522 20679
Epoch: May 26, 2026 • Age: 9 hours

当前状态

高度 479.1 km
速度 7.62 km/s
星下点 -34.26°S, 70.48°W
发射日期 Jan 22, 2026
运行时间 0.3 years
类型 internet

技术详情

分类 Payload
质量 575.00 kg
干质量 530.00 kg
总质量 575.00 kg
长度 0.30 m
直径 4.10 m
跨度 29.00 m
形状 Box + pan
制造商 SPXS
平台类型 Starlink V2MO
阶段状态 In Orbit
所有者/国家 SPXS/US

Most Searched